Weather in Hội An

Vietnam     15°52′45″N   108°19′52″E
temp.,
°C
wind,
m/s
gust,
m/s
humid.,
%
clouds,
%
prec.,
mm/h
press.,
hPa
HPBL,
m
2 august, mon
mon201:00+29wsw3568100 0.0 1001171
04:00+28wsw5770100 0.0 1001208
07:00+30sw6964100 0.0 1001342
10:00+33w4753100 0.0 1002764
13:00+33wnw375397 0.0 1000770
16:00+34sw4647100 0.0 999667
19:00+31sw3660100 0.0 1001170
22:00+30sw5964100 0.0 1002235
3 august, tue
tue301:00+28sw697199 0.0 1001282
04:00+28sw61071100 0.0 1001360
07:00+29wsw4668100 0.0 1002207
10:00+31wsw5960100 0.1 1002564
13:00+32w3656100 0.1 1001244
16:00+32n1558100 0.0 1000442
19:00+30sw236491 0.0 100261
22:00+30sw4764100 0.0 1003168
4 august, wed
wed401:00+29sw4765100 0.0 1002219
04:00+29sw5964100 0.0 1002359
07:00+29sw61063100 0.0 1003496
10:00+32wsw675661 0.0 1003489
13:00+32nnw3456100 0.0 1001660
16:00+31ne2359100 0.0 1000632
19:00+30e2374100 0.0 100281
22:00+29wsw3569100 0.0 1003161
5 august, thu
thu501:00+28wsw5868100 0.0 1001228
04:00+29sw5966100 0.0 1000313
07:00+30sw5961100 0.0 1002491
10:00+34wsw6850100 0.0 1001731
13:00+33nne5655100 0.0 9991128
16:00+31e346490 0.0 999154
19:00+30ese3476100 0.0 100081
22:00+29sw4866100 0.0 1002226
6 august, fri
fri601:00+29sw5867100 0.0 1001251
04:00+29sw5967100 0.1 1001281
07:00+28wsw4774100 0.4 1002201
10:00+31sw6959100 0.0 1002563
13:00+32sw4557100 0.0 1001497
16:00+33wsw2456100 0.0 1000566
19:00+30sse2266100 0.0 100229
22:00+29sw4768100 0.0 1003191